Flag for Canada Weather past 2 weeks in Ottawa, Ontario, Canada

Now
68 °F

Scattered clouds.


Feels Like: 68 °F
Forecast: 58 / 75 °F
Wind: 12 mph from Northwest

Location: Ottawa Int'L. Ont.

Current Time: Aug 1, 2015 at 10:32:28 AM

Latest Report: Aug 1, 2015 at 10:00 AM


Visibility: 15 mi

Pressure: 29.75 "Hg

Humidity: 69%

Dew point: 57 °F

Location of OttawaLocation

Historic Weather in Ottawa — Graph

°F

Ottawa temperature yesterday

Maximum temperature yesterday: 82 °F (at 3:00 PM)
Minimum temperature yesterday: 64 °F (at 2:00 AM)
Average temperature yesterday: 72 °F

Past Weeks' High & Low Weather Summary

 TemperatureHumidityPressure
High93 °F (Jul 28, 4:00 PM)100% (Jul 17, 11:00 PM)30.04 "Hg (Jul 17, 11:00 PM)
Low57 °F (Jul 24, 1:00 AM)36% (Jul 23, 4:00 PM)29.53 "Hg (Jul 21, 1:00 PM)
Average72 °F73%29.81 "Hg
* Reported Jul 17 9:00 AM — Aug 1 9:00 AM, Ottawa, Weather by CustomWeather, © 2015

Note: Actual official high and low records may vary slightly from our data, if they occured in-between our weather recording intervals... More about our weather records

Advertising

Ottawa weather history for previous 24 hours

 ConditionsComfort  
Time TempWeatherWind HumidityBarometerVisibility
9:00 AM
Sat, Aug 1
66 °FScattered clouds.15 mph73%29.75 "Hg15 mi
8:00 AM64 °FPartly sunny.13 mph73%29.75 "Hg15 mi
7:00 AM63 °FScattered clouds.8 mph83%29.73 "Hg15 mi
6:00 AM59 °FPassing clouds.8 mph94%29.72 "Hg15 mi
5:00 AM57 °FPassing clouds.6 mph100%29.71 "Hg15 mi
4:00 AM59 °FPassing clouds.7 mph94%29.70 "Hg15 mi
3:00 AM61 °FPassing clouds.7 mph100%29.70 "Hg15 mi
2:00 AM61 °FPassing clouds.6 mph94%29.69 "Hg15 mi
1:00 AM64 °FPassing clouds.3 mph83%29.70 "Hg15 mi
12:00 AM64 °FPassing clouds.6 mph83%29.72 "Hg15 mi
11:00 PM
Fri, Jul 31
64 °FPassing clouds.5 mph83%29.72 "Hg15 mi
10:00 PM68 °FPassing clouds.10 mph73%29.72 "Hg15 mi
9:00 PM72 °FPartly sunny.13 mph65%29.69 "Hg15 mi
8:00 PM73 °FPartly sunny.16 mph57%29.67 "Hg15 mi
7:00 PM77 °FBroken clouds.21 mph51%29.67 "Hg15 mi
6:00 PM79 °FScattered clouds.16 mph54%29.67 "Hg15 mi
5:00 PM81 °FScattered clouds.18 mph51%29.68 "Hg15 mi
4:00 PM79 °FScattered clouds.15 mph51%29.70 "Hg15 mi
3:00 PM82 °FScattered clouds.14 mph45%29.72 "Hg15 mi
2:00 PM79 °FBroken clouds.8 mph45%29.75 "Hg15 mi
1:00 PM81 °FPartly sunny.12 mph45%29.76 "Hg15 mi
12:00 PM77 °FPartly sunny.9 mph51%29.78 "Hg15 mi
11:00 AM75 °FPassing clouds.10 mph54%29.79 "Hg15 mi
10:00 AM73 °FPassing clouds.10 mph57%29.79 "Hg15 mi
Weather by CustomWeather, © 2015

See weather overviewHow to use our weather pages